Preview of NWS' New Version of Forecast
This preview is not operational and should not be used for support decisions.

Regional Weather Roundup (RWR)

Issued by National Weather Service (NWS)

                            
000
ASUS46 KSEW 180510
RWRWA 

WASHINGTON REGIONAL WEATHER ROUNDUP
NATIONAL WEATHER SERVICE SEATTLE WA
1000 PM PDT MON JUN 17 2019

NOTE:"FAIR" INDICATES FEW OR NO CLOUDS BELOW 12,000 FEET WITH NO 
SIGNIFICANT WEATHER AND/OR OBSTRUCTIONS TO VISIBILITY.

WAZ507-509-555>559-180600-
SEATTLE, TACOMA, EVERETT, AND VICINITY
  
CITY           SKY/WX    TMP DP  RH WIND       PRES   REMARKS
EVERETT        MOCLDY    60  55  83 N10       30.15R                  
BOEING FIELD   MOCLDY    71  54  54 SW5       30.12R                  
RENTON         CLOUDY    72  58  61 S8        30.11R                  
SEATAC AIRPORT MOCLDY    66  56  70 S9        30.14R                  
JBLM-MCCHORD   CLEAR     64  60  87 W6        30.15R                  
PUYALLUP       MOCLDY    66  59  77 CALM      30.15R                  
BREMERTON      PTCLDY    62  56  80 S6        30.14R                  
JBLM-FT LEWIS  CLEAR     64  61  90 S10       30.14R                  
TACOMA NARROWS CLEAR     61  54  77 SW12      30.15R                  
$$
 
WAZ001-503-506-510-514-515-180600-
NORTH INTERIOR
  
CITY           SKY/WX    TMP DP  RH WIND       PRES   REMARKS
BELLINGHAM     PTCLDY    62  53  72 S12G18    30.09R                  
FRIDAY HARBOR  MOCLDY    63  51  65 CALM      30.10R                  
EASTSOUND      CLOUDY    63  54  72 S10       30.08R                  
PORT ANGELES   CLOUDY    56  54  93 W15G22    30.16S                  
EDIZ HOOK      CLOUDY    55  53  91 W24G30    30.14S                  
PORT TOWNSEND  CLOUDY    59  55  88 NW9       30.14R                  
NAS WHIDBEY    MOCLDY    60  53  77 SW17G25   30.17R                  
ARLINGTON      CLOUDY    62  55  77 NW6       30.16R                  
BURLINGTON     MOCLDY    61  54  77 SE6       30.14R                  
$$
 
WAZ020-022-039-040-504-511-512-180600-
SOUTHWEST INTERIOR
  
CITY           SKY/WX    TMP DP  RH WIND       PRES   REMARKS
SHELTON        CLEAR     60  54  80 SW10      30.12R                  
OLYMPIA        CLEAR     60  53  77 SW5       30.15                   
CHEHALIS       FAIR      59  57  94 VRB6      30.18S                  
KELSO          CLOUDY    61  56  83 VRB5      30.20R                  
VANCOUVER      CLEAR     67  54  63 NW8       30.15R                  
SCAPPOOSE, OR  CLEAR     65  54  67 NW12      30.16R                  
PORTLAND, OR   PTCLDY    68  54  60 NW9       30.16R                  
$$
 
WAZ021-516-517-180600-
WASHINGTON COAST
  
CITY           SKY/WX    TMP DP  RH WIND       PRES   REMARKS
FORKS          CLOUDY    55  54  96 CALM      30.21S FOG              
HOQUIAM        CLOUDY    55  55 100 NW12      30.21R FOG              
ASTORIA, OR    CLOUDY    57  55  93 W7        30.23R                  
$$
 
WAZ019-023-024-040-567>569-180600-
CASCADE MOUNTAINS AND COLUMBIA GORGE
  
CITY           SKY/WX    TMP DP  RH WIND       PRES   REMARKS
STAMPEDE PASS  PTCLDY    54  49  83 VRB6      30.20R                  
TROUTDALE, OR  CLEAR     68  55  63 NW5       30.15R                  
HOOD RIVER, OR PTCLDY    72  54  53 W3        30.08R                  
THE DALLES, OR PTCLDY    75  52  44 W14       30.01R                  
$$

WAZ026-027-041>044-520-521-180600-
EAST SLOPES
  
CITY           SKY/WX    TMP DP  RH WIND       PRES   REMARKS
OMAK           CLOUDY    80  42  25 W3        29.89R                  
WENATCHEE      MOCLDY    74  43  32 W18G28    29.96R                  
ELLENSBURG     MOCLDY    68  50  52 NW21G26   30.03S                  
YAKIMA         MOCLDY    75  45  34 NW18G30   30.00R                  
SUNNYSIDE ARPT MOCLDY    76  48  36 W14G22    29.95                   
YAKIMA TC      FAIR      72  43  34 N9        30.01R                  
$$

WAZ028-034-035-180600-
COLUMBIA BASIN
  
CITY           SKY/WX    TMP DP  RH WIND       PRES   REMARKS
EPHRATA        MOCLDY    78  43  28 NW16G32   29.90R                  
MOSES LAKE     MOCLDY    78  45  30 W13       29.91R                  
PASCO          MOCLDY    79  46  31 NW17      29.91R                  
RICHLAND ARPT  MOCLDY    77  45  32 NW10      29.91R                  
HERMISTON, OR  MOCLDY    76  54  46 SW17      29.92R                  
$$

WAZ036>038-180600-
NORTHEAST WASHINGTON
  
CITY           SKY/WX    TMP DP  RH WIND       PRES   REMARKS
SPOKANE GEIGER MOCLDY    75  44  33 SW12      29.96R                  
SPOKANE FELTS  PTCLDY    77  47  34 W3        29.94R                  
FAIRCHILD AFB  PTCLDY    72  42  34 SW9       29.97R                  
COEURDALENE,ID MOCLDY    69  55  60 N7        29.97R                  
DEER PARK      PTCLDY    66  54  65 E6        29.96R                  
$$

WAZ029>033-180600-
SOUTHEAST WASHINGTON
  
CITY           SKY/WX    TMP DP  RH WIND       PRES   REMARKS
PULLMAN        CLEAR     68  53  58 SW5       30.02R                  
LEWISTON, ID   CLEAR     78  50  37 NW3       29.95R                  
WALLA WALLA    CLEAR     74  50  42 SE7       29.95R                  
PENDLETON, OR  PTCLDY    74  51  44 W22G30    29.97R                  
$$